| time (UTC) | temp F | wind direction | speed MPH | gust MPH | rain 1hr in | rain 24hr in | rain mn in | humidity % | barometer mb |
| 20260504011952 | 74 | 238 | 2.0 | 5.0 | 0.00 | 0.00 | 0.00 | 43 | 1015.2 |
| 20260504011448 | 74 | 214 | 3.0 | 6.0 | 0.00 | 0.00 | 0.00 | 43 | 1015.2 |
| 20260504010944 | 75 | 230 | 1.0 | 4.0 | 0.00 | 0.00 | 0.00 | 42 | 1015.2 |
| 20260504010440 | 75 | 281 | 0.0 | 7.0 | 0.00 | 0.00 | 0.00 | 42 | 1015.1 |
| 20260504005936 | 75 | 262 | 0.0 | 4.0 | 0.00 | 0.00 | 0.00 | 41 | 1015.1 |
| 20260504005433 | 75 | 219 | 4.0 | 7.0 | 0.00 | 0.00 | 0.00 | 41 | 1015.1 |
| 20260504004931 | 76 | 263 | 1.0 | 9.0 | 0.00 | 0.00 | 0.00 | 41 | 1015.2 |
| 20260504004428 | 76 | 243 | 3.0 | 5.0 | 0.00 | 0.00 | 0.00 | 40 | 1015.3 |
| 20260504003925 | 77 | 201 | 3.0 | 7.0 | 0.00 | 0.00 | 0.00 | 39 | 1015.3 |
| 20260504003421 | 77 | 206 | 0.0 | 8.0 | 0.00 | 0.00 | 0.00 | 39 | 1015.2 |
| 20260504002918 | 78 | 204 | 3.0 | 8.0 | 0.00 | 0.00 | 0.00 | 38 | 1015.2 |
| 20260504002415 | 79 | 201 | 4.0 | 11.0 | 0.00 | 0.00 | 0.00 | 38 | 1014.9 |
| 20260504001913 | 80 | 263 | 2.0 | 5.0 | 0.00 | 0.00 | 0.00 | 38 | 1015.3 |
| 20260504001410 | 80 | 250 | 1.0 | 5.0 | 0.00 | 0.00 | 0.00 | 36 | 1015.3 |
| 20260504000906 | 80 | 208 | 5.0 | 8.0 | 0.00 | 0.00 | 0.00 | 36 | 1015.5 |
| 20260504000404 | 80 | 234 | 2.0 | 9.0 | 0.00 | 0.00 | 0.00 | 36 | 1015.6 |
| 20260503235901 | 81 | 238 | 6.0 | 10.0 | 0.00 | 0.00 | 0.00 | 36 | 1015.3 |
| 20260503235359 | 81 | 224 | 3.0 | 8.0 | 0.00 | 0.00 | 0.00 | 36 | 1015.5 |
| 20260503234856 | 82 | 224 | 5.0 | 8.0 | 0.00 | 0.00 | 0.00 | 36 | 1015.3 |
| 20260503234354 | 82 | 223 | 6.0 | 10.0 | 0.00 | 0.00 | 0.00 | 34 | 1015.2 |
| 20260503233851 | 82 | 188 | 3.0 | 7.0 | 0.00 | 0.00 | 0.00 | 35 | 1015.7 |
| 20260503233347 | 82 | 179 | 5.0 | 7.0 | 0.00 | 0.00 | 0.00 | 34 | 1015.5 |
| 20260503232844 | 82 | 249 | 3.0 | 7.0 | 0.00 | 0.00 | 0.00 | 35 | 1015.7 |
| 20260503232341 | 83 | 195 | 3.0 | 12.0 | 0.00 | 0.00 | 0.00 | 34 | 1015.5 |
| 20260503231839 | 84 | 238 | 3.0 | 9.0 | 0.00 | 0.00 | 0.00 | 32 | 1015.6 |
| 20260503231336 | 84 | 216 | 3.0 | 11.0 | 0.00 | 0.00 | 0.00 | 32 | 1015.6 |
| 20260503230832 | 84 | 258 | 2.0 | 10.0 | 0.00 | 0.00 | 0.00 | 33 | 1016.0 |
| 20260503230329 | 84 | 209 | 5.0 | 10.0 | 0.00 | 0.00 | 0.00 | 31 | 1015.6 |
| 20260503225827 | 84 | 209 | 4.0 | 8.0 | 0.00 | 0.00 | 0.00 | 31 | 1015.9 |
| 20260503225322 | 84 | 200 | 7.0 | 11.0 | 0.00 | 0.00 | 0.00 | 30 | 1015.5 |
| 20260503224818 | 84 | 218 | 5.0 | 11.0 | 0.00 | 0.00 | 0.00 | 30 | 1016.0 |
| 20260503224316 | 83 | 257 | 3.0 | 10.0 | 0.00 | 0.00 | 0.00 | 30 | 1015.8 |
| 20260503223814 | 83 | 194 | 5.0 | 13.0 | 0.00 | 0.00 | 0.00 | 32 | 1015.7 |
| 20260503223311 | 84 | 212 | 3.0 | 9.0 | 0.00 | 0.00 | 0.00 | 32 | 1015.9 |
| 20260503222807 | 82 | 237 | 3.0 | 8.0 | 0.00 | 0.00 | 0.00 | 33 | 1016.1 |
| 20260503222306 | 84 | 249 | 2.0 | 12.0 | 0.00 | 0.00 | 0.00 | 33 | 1016.2 |
| 20260503221803 | 85 | 253 | 2.0 | 13.0 | 0.00 | 0.00 | 0.00 | 32 | 1016.0 |
| 20260503221301 | 85 | 221 | 4.0 | 9.0 | 0.00 | 0.00 | 0.00 | 32 | 1016.1 |
| 20260503220757 | 86 | 228 | 3.0 | 8.0 | 0.00 | 0.00 | 0.00 | 31 | 1016.4 |
| 20260503220254 | 85 | 186 | 4.0 | 7.0 | 0.00 | 0.00 | 0.00 | 32 | 1016.0 |
| 20260503215751 | 85 | 249 | 2.0 | 13.0 | 0.00 | 0.00 | 0.00 | 32 | 1016.2 |
| 20260503215248 | 85 | 201 | 5.0 | 8.0 | 0.00 | 0.00 | 0.00 | 31 | 1016.1 |
| 20260503214746 | 84 | 226 | 2.0 | 8.0 | 0.00 | 0.00 | 0.00 | 32 | 1016.2 |
| 20260503214242 | 85 | 269 | 3.0 | 9.0 | 0.00 | 0.00 | 0.00 | 30 | 1016.5 |
| 20260503213741 | 86 | 264 | 5.0 | 13.0 | 0.00 | 0.00 | 0.00 | 31 | 1016.5 |
| 20260503213238 | 86 | 202 | 2.0 | 10.0 | 0.00 | 0.00 | 0.00 | 31 | 1016.5 |
| 20260503212734 | 85 | 200 | 3.0 | 11.0 | 0.00 | 0.00 | 0.00 | 31 | 1016.5 |
| 20260503212232 | 86 | 234 | 4.0 | 11.0 | 0.00 | 0.00 | 0.00 | 31 | 1016.7 |
| 20260503211730 | 86 | 260 | 3.0 | 6.0 | 0.00 | 0.00 | 0.00 | 31 | 1016.5 |
| 20260503211225 | 85 | 202 | 4.0 | 9.0 | 0.00 | 0.00 | 0.00 | 30 | 1016.8 |
| 20260503210721 | 85 | 225 | 3.0 | 10.0 | 0.00 | 0.00 | 0.00 | 30 | 1016.8 |
| 20260503210219 | 85 | 226 | 1.0 | 7.0 | 0.00 | 0.00 | 0.00 | 31 | 1016.9 |
| 20260503205714 | 85 | 199 | 5.0 | 8.0 | 0.00 | 0.00 | 0.00 | 32 | 1016.9 |
| 20260503205210 | 85 | 194 | 2.0 | 12.0 | 0.00 | 0.00 | 0.00 | 32 | 1017.1 |
| 20260503204707 | 86 | 243 | 5.0 | 11.0 | 0.00 | 0.00 | 0.00 | 32 | 1017.2 |
| 20260503204205 | 85 | 230 | 3.0 | 11.0 | 0.00 | 0.00 | 0.00 | 30 | 1017.2 |
| 20260503203702 | 85 | 193 | 6.0 | 11.0 | 0.00 | 0.00 | 0.00 | 31 | 1017.5 |
| 20260503203159 | 85 | 228 | 5.0 | 11.0 | 0.00 | 0.00 | 0.00 | 31 | 1017.4 |
| 20260503202656 | 84 | 226 | 5.0 | 11.0 | 0.00 | 0.00 | 0.00 | 31 | 1017.7 |
| 20260503202154 | 86 | 279 | 3.0 | 6.0 | 0.00 | 0.00 | 0.00 | 32 | 1017.8 |
| 20260503201652 | 84 | 203 | 3.0 | 8.0 | 0.00 | 0.00 | 0.00 | 31 | 1017.9 |
| 20260503201149 | 85 | 236 | 3.0 | 7.0 | 0.00 | 0.00 | 0.00 | 33 | 1017.9 |
| 20260503200645 | 85 | 272 | 4.0 | 8.0 | 0.00 | 0.00 | 0.00 | 30 | 1018.0 |
| 20260503200141 | 84 | 254 | 3.0 | 10.0 | 0.00 | 0.00 | 0.00 | 32 | 1018.1 |
| 20260503195639 | 84 | 250 | 2.0 | 13.0 | 0.00 | 0.00 | 0.00 | 32 | 1018.4 |
| 20260503195136 | 85 | 189 | 1.0 | 10.0 | 0.00 | 0.00 | 0.00 | 33 | 1018.3 |
| 20260503194633 | 85 | 267 | 2.0 | 11.0 | 0.00 | 0.00 | 0.00 | 35 | 1018.3 |
| 20260503194128 | 84 | 221 | 5.0 | 12.0 | 0.00 | 0.00 | 0.00 | 32 | 1018.0 |
| 20260503193625 | 84 | 234 | 6.0 | 11.0 | 0.00 | 0.00 | 0.00 | 33 | 1018.1 |
| 20260503193120 | 85 | 221 | 2.0 | 5.0 | 0.00 | 0.00 | 0.00 | 35 | 1018.2 |
| 20260503192616 | 84 | 244 | 2.0 | 11.0 | 0.00 | 0.00 | 0.00 | 34 | 1018.6 |
| 20260503192112 | 84 | 192 | 5.0 | 14.0 | 0.00 | 0.00 | 0.00 | 32 | 1018.8 |
| 20260503191609 | 84 | 181 | 1.0 | 4.0 | 0.00 | 0.00 | 0.00 | 33 | 1018.6 |
| 20260503191106 | 83 | 284 | 3.0 | 11.0 | 0.00 | 0.00 | 0.00 | 35 | 1018.7 |
| 20260503190604 | 84 | 236 | 6.0 | 8.0 | 0.00 | 0.00 | 0.00 | 35 | 1018.8 |
| 20260503190101 | 84 | 231 | 3.0 | 10.0 | 0.00 | 0.00 | 0.00 | 36 | 1018.7 |
| 20260503185557 | 83 | 274 | 0.0 | 8.0 | 0.00 | 0.00 | 0.00 | 37 | 1018.7 |
| 20260503185056 | 84 | 230 | 3.0 | 7.0 | 0.00 | 0.00 | 0.00 | 36 | 1018.9 |
| 20260503184552 | 83 | 217 | 2.0 | 10.0 | 0.00 | 0.00 | 0.00 | 37 | 1018.9 |
| 20260503184049 | 83 | 266 | 2.0 | 9.0 | 0.00 | 0.00 | 0.00 | 35 | 1019.1 |
| 20260503183545 | 82 | 240 | 2.0 | 11.0 | 0.00 | 0.00 | 0.00 | 38 | 1019.1 |
| 20260503183043 | 82 | 183 | 4.0 | 9.0 | 0.00 | 0.00 | 0.00 | 37 | 1019.3 |
| 20260503182541 | 82 | 163 | 3.0 | 8.0 | 0.00 | 0.00 | 0.00 | 38 | 1019.3 |
| 20260503182039 | 82 | 259 | 4.0 | 11.0 | 0.00 | 0.00 | 0.00 | 38 | 1019.6 |
| 20260503181536 | 82 | 224 | 5.0 | 12.0 | 0.00 | 0.00 | 0.00 | 37 | 1019.4 |
| 20260503181032 | 82 | 269 | 5.0 | 8.0 | 0.00 | 0.00 | 0.00 | 37 | 1019.8 |
| 20260503180529 | 83 | 195 | 6.0 | 8.0 | 0.00 | 0.00 | 0.00 | 38 | 1019.6 |
| 20260503180027 | 81 | 215 | 3.0 | 13.0 | 0.00 | 0.00 | 0.00 | 39 | 1020.0 |
| 20260503175524 | 81 | 264 | 3.0 | 9.0 | 0.00 | 0.00 | 0.00 | 38 | 1020.1 |
| 20260503175021 | 81 | 200 | 5.0 | 11.0 | 0.00 | 0.00 | 0.00 | 39 | 1020.0 |
| 20260503174518 | 82 | 231 | 2.0 | 6.0 | 0.00 | 0.00 | 0.00 | 39 | 1020.2 |
| 20260503174014 | 80 | 220 | 5.0 | 13.0 | 0.00 | 0.00 | 0.00 | 39 | 1020.3 |
| 20260503173509 | 81 | 242 | 2.0 | 11.0 | 0.00 | 0.00 | 0.00 | 40 | 1020.5 |
| 20260503173006 | 81 | 237 | 2.0 | 10.0 | 0.00 | 0.00 | 0.00 | 39 | 1020.2 |
| 20260503172504 | 80 | 236 | 3.0 | 9.0 | 0.00 | 0.00 | 0.00 | 39 | 1020.2 |
| 20260503172001 | 81 | 220 | 1.0 | 9.0 | 0.00 | 0.00 | 0.00 | 40 | 1020.3 |
| 20260503171457 | 81 | 264 | 4.0 | 9.0 | 0.00 | 0.00 | 0.00 | 41 | 1020.4 |
| 20260503170954 | 80 | 203 | 6.0 | 9.0 | 0.00 | 0.00 | 0.00 | 40 | 1020.6 |
| 20260503170450 | 80 | 199 | 3.0 | 7.0 | 0.00 | 0.00 | 0.00 | 41 | 1020.5 |
| 20260503150843 | 75 | 190 | 4.0 | 9.0 | 0.00 | 0.00 | 0.00 | 48 | 1021.2 |
| 20260503150339 | 75 | 250 | 4.0 | 8.0 | 0.00 | 0.00 | 0.00 | 48 | 1021.0 |
| 20260503140303 | 70 | 259 | 3.0 | 6.0 | 0.00 | 0.00 | 0.00 | 56 | 1021.2 |
| 20260503131233 | 63 | 198 | 0.0 | 3.0 | 0.00 | 0.00 | 0.00 | 71 | 1020.9 |
| 20260503130731 | 63 | 178 | 3.0 | 3.0 | 0.00 | 0.00 | 0.00 | 70 | 1021.1 |
| 20260503130227 | 63 | 181 | 0.0 | 2.0 | 0.00 | 0.00 | 0.00 | 70 | 1020.9 |
| 20260503120153 | 55 | 173 | 0.0 | 2.0 | 0.00 | 0.00 | 0.00 | 80 | 1020.5 |
| 20260503110621 | 55 | 209 | 0.0 | 2.0 | 0.00 | 0.00 | 0.00 | 80 | 1019.9 |
| 20260503110118 | 55 | 167 | 0.0 | 3.0 | 0.00 | 0.00 | 0.00 | 80 | 1019.9 |
| 20260503090508 | 56 | 224 | 0.0 | 2.0 | 0.00 | 0.00 | 0.00 | 76 | 1019.9 |
| 20260503081434 | 58 | 209 | 0.0 | 2.0 | 0.00 | 0.00 | 0.00 | 69 | 1019.6 |
| 20260503080931 | 59 | 205 | 0.0 | 2.0 | 0.00 | 0.00 | 0.00 | 68 | 1019.9 |
| 20260503080428 | 59 | 191 | 0.0 | 2.0 | 0.00 | 0.00 | 0.00 | 67 | 1019.8 |
| 20260503072904 | 59 | 205 | 1.0 | 3.0 | 0.00 | 0.00 | 0.00 | 66 | 1019.8 |
| 20260503072401 | 59 | 227 | 2.0 | 3.0 | 0.00 | 0.00 | 0.00 | 66 | 1019.5 |
| 20260503071858 | 60 | 189 | 0.0 | 4.0 | 0.00 | 0.00 | 0.00 | 65 | 1020.2 |
| 20260503071355 | 59 | 197 | 2.0 | 4.0 | 0.00 | 0.00 | 0.00 | 67 | 1019.8 |
| 20260503070851 | 59 | 205 | 1.0 | 3.0 | 0.00 | 0.00 | 0.00 | 67 | 1020.0 |
| 20260503070349 | 59 | 174 | 1.0 | 2.0 | 0.00 | 0.00 | 0.00 | 67 | 1019.9 |
| 20260503060314 | 61 | 235 | 0.0 | 2.0 | 0.00 | 0.00 | 0.00 | 64 | 1019.9 |
| 20260503054802 | 61 | 230 | 0.0 | 1.0 | 0.00 | 0.00 | 0.00 | 64 | 1019.9 |
| 20260503054258 | 61 | 223 | 2.0 | 3.0 | 0.00 | 0.00 | 0.00 | 64 | 1020.0 |
| 20260503053756 | 61 | 202 | 0.0 | 2.0 | 0.00 | 0.00 | 0.00 | 63 | 1019.8 |
| 20260503053254 | 62 | 232 | 0.0 | 2.0 | 0.00 | 0.00 | 0.00 | 62 | 1019.5 |
| 20260503052750 | 62 | 209 | 2.0 | 3.0 | 0.00 | 0.00 | 0.00 | 62 | 1019.8 |
| 20260503052247 | 62 | 228 | 2.0 | 4.0 | 0.00 | 0.00 | 0.00 | 61 | 1019.9 |
| 20260503051742 | 62 | 235 | 0.0 | 2.0 | 0.00 | 0.00 | 0.00 | 61 | 1019.7 |
| 20260503051240 | 63 | 258 | 1.0 | 3.0 | 0.00 | 0.00 | 0.00 | 60 | 1019.7 |
| 20260503050736 | 63 | 223 | 0.0 | 3.0 | 0.00 | 0.00 | 0.00 | 59 | 1019.7 |
| 20260503050233 | 63 | 201 | 1.0 | 4.0 | 0.00 | 0.00 | 0.00 | 59 | 1019.7 |
| 20260503045730 | 62 | 243 | 0.0 | 3.0 | 0.00 | 0.00 | 0.00 | 60 | 1019.6 |
| 20260503045228 | 62 | 246 | 1.0 | 2.0 | 0.00 | 0.00 | 0.00 | 61 | 1019.4 |
| 20260503044724 | 63 | 208 | 1.0 | 3.0 | 0.00 | 0.00 | 0.00 | 61 | 1019.7 |
| 20260503044222 | 63 | 271 | 1.0 | 3.0 | 0.00 | 0.00 | 0.00 | 61 | 1019.8 |
| 20260503043718 | 63 | 212 | 2.0 | 3.0 | 0.00 | 0.00 | 0.00 | 60 | 1019.6 |
| 20260503043216 | 63 | 209 | 0.0 | 2.0 | 0.00 | 0.00 | 0.00 | 60 | 1019.7 |
| 20260503042712 | 63 | 249 | 0.0 | 2.0 | 0.00 | 0.00 | 0.00 | 61 | 1019.7 |
| 20260503042208 | 63 | 234 | 0.0 | 1.0 | 0.00 | 0.00 | 0.00 | 61 | 1019.7 |
| 20260503041704 | 63 | 194 | 0.0 | 3.0 | 0.00 | 0.00 | 0.00 | 61 | 1019.5 |
| 20260503041202 | 63 | 224 | 0.0 | 2.0 | 0.00 | 0.00 | 0.00 | 62 | 1019.5 |
| 20260503040659 | 63 | 225 | 0.0 | 1.0 | 0.00 | 0.00 | 0.00 | 62 | 1019.7 |
| 20260503040157 | 63 | 235 | 0.0 | 1.0 | 0.00 | 0.00 | 0.00 | 61 | 1019.7 |
| 20260503035653 | 63 | 248 | 1.0 | 2.0 | 0.00 | 0.00 | 0.00 | 61 | 1019.8 |
| 20260503035151 | 64 | 209 | 0.0 | 2.0 | 0.00 | 0.00 | 0.00 | 59 | 1019.5 |
| 20260503034648 | 64 | 179 | 1.0 | 2.0 | 0.00 | 0.00 | 0.00 | 58 | 1019.6 |
| 20260503034145 | 64 | 285 | 0.0 | 2.0 | 0.00 | 0.00 | 0.00 | 58 | 1019.5 |
| 20260503033642 | 65 | 212 | 1.0 | 2.0 | 0.00 | 0.00 | 0.00 | 57 | 1019.5 |
| 20260503033140 | 65 | 164 | 0.0 | 3.0 | 0.00 | 0.00 | 0.00 | 56 | 1019.5 |
| 20260503032638 | 65 | 297 | 0.0 | 1.0 | 0.00 | 0.00 | 0.00 | 56 | 1019.5 |
| 20260503032137 | 65 | 322 | 0.0 | 1.0 | 0.00 | 0.00 | 0.00 | 56 | 1019.5 |
| 20260503031634 | 65 | 347 | 0.0 | 1.0 | 0.00 | 0.00 | 0.00 | 55 | 1019.5 |
| 20260503031131 | 65 | 195 | 0.0 | 2.0 | 0.00 | 0.00 | 0.00 | 55 | 1019.5 |
| 20260503030627 | 66 | 180 | 0.0 | 1.0 | 0.00 | 0.00 | 0.00 | 55 | 1019.6 |
| 20260503030124 | 66 | 101 | 1.0 | 3.0 | 0.00 | 0.00 | 0.00 | 54 | 1019.3 |
| 20260503025620 | 66 | 236 | 0.0 | 2.0 | 0.00 | 0.00 | 0.00 | 53 | 1019.4 |
| 20260503025119 | 66 | 212 | 0.0 | 2.0 | 0.00 | 0.00 | 0.00 | 53 | 1019.3 |
| 20260503024615 | 66 | 233 | 0.0 | 2.0 | 0.00 | 0.00 | 0.00 | 52 | 1019.4 |
| 20260503024112 | 66 | 242 | 0.0 | 2.0 | 0.00 | 0.00 | 0.00 | 53 | 1019.2 |
| 20260503023609 | 67 | 228 | 0.0 | 2.0 | 0.00 | 0.00 | 0.00 | 52 | 1019.1 |
| 20260503023106 | 67 | 187 | 0.0 | 1.0 | 0.00 | 0.00 | 0.00 | 51 | 1019.2 |
| 20260503022601 | 67 | 212 | 0.0 | 1.0 | 0.00 | 0.00 | 0.00 | 51 | 1018.9 |
| 20260503022056 | 67 | 245 | 0.0 | 2.0 | 0.00 | 0.00 | 0.00 | 51 | 1019.0 |
| 20260503021554 | 67 | 205 | 0.0 | 1.0 | 0.00 | 0.00 | 0.00 | 51 | 1019.0 |
| 20260503021051 | 68 | 205 | 0.0 | 1.0 | 0.00 | 0.00 | 0.00 | 50 | 1019.1 |
| 20260503020548 | 68 | 166 | 0.0 | 2.0 | 0.00 | 0.00 | 0.00 | 50 | 1019.0 |
| 20260503020044 | 69 | 221 | 0.0 | 2.0 | 0.00 | 0.00 | 0.00 | 49 | 1018.8 |
| 20260503015541 | 69 | 212 | 0.0 | 1.0 | 0.00 | 0.00 | 0.00 | 49 | 1018.9 |
| 20260503015039 | 69 | 195 | 0.0 | 1.0 | 0.00 | 0.00 | 0.00 | 49 | 1018.8 |
| 20260503014534 | 69 | 256 | 0.0 | 2.0 | 0.00 | 0.00 | 0.00 | 49 | 1018.9 |
| 20260503014033 | 69 | 218 | 0.0 | 2.0 | 0.00 | 0.00 | 0.00 | 49 | 1018.8 |
| 20260503013529 | 69 | 217 | 0.0 | 1.0 | 0.00 | 0.00 | 0.00 | 47 | 1018.8 |
| 20260503013027 | 70 | 237 | 0.0 | 1.0 | 0.00 | 0.00 | 0.00 | 47 | 1018.8 |
| 20260503012524 | 71 | 245 | 1.0 | 2.0 | 0.00 | 0.00 | 0.00 | 45 | 1018.7 |